Location: Sungai Bunut
(2.6333°N, 113.7333°E)
Time: 02:24:44
(UTC+00:00)

S-56A Canister/Altair - Pass Details

Date: 07 December 2023
Orbit: 640 x 2488 km, 38.9° (Epoch: 24 February)

Event Time Altitude Azimuth Distance (km) Brightness Sun altitude
Rises 08:48:42 0° 352° (N) 3,388 10.7 19.1°
Reaches altitude 10° 08:53:28 10° 28° (NNE) 2,821 10.0 18.0°
Maximum altitude 08:55:15 11° 44° (NE) 2,893 10.0 17.6°
Drops below altitude 10° 08:57:12 10° 59° (ENE) 3,136 10.1 17.1°
Sets 09:03:44 0° 91° (E) 4,673 11.0 15.6°
